Overview Statistics Trail Chart Weather Telemetry Raw packets
 

This is the latest recevied weather packets stored in our database for station/object W0WFX-2. If no packets are shown the sender has not sent any weather packets the latest 10 day(s).

<< 39 40 41 42 43 44 45 >>
Time Temp. Humidity Pressure Rain* Wind** Luminosity Snow
1788371815 37.78° C 38% 1015 hPa 0 mm - 725 W/m² -
1788371511 37.78° C 39% 1015.1 hPa 0 mm - 721 W/m² -
1788371207 37.22° C 40% 1015.1 hPa 0 mm - 719 W/m² -
1788370903 37.22° C 40% 1015.2 hPa 0 mm - 719 W/m² -
1788370598 36.67° C 42% 1015.2 hPa 0 mm - 716 W/m² -
1788370293 36.67° C 42% 1015.2 hPa 0 mm - 712 W/m² -
1788369987 37.22° C 41% 1015.5 hPa 0 mm - 705 W/m² -
1788369686 36.67° C 42% 1015.6 hPa 0 mm - 700 W/m² -
1788369382 36.67° C 42% 1015.5 hPa 0 mm - 693 W/m² -
1788369078 36.67° C 42% 1015.6 hPa 0 mm - 690 W/m² -
1788368774 36.67° C 43% 1015.5 hPa 0 mm - 682 W/m² -
1788368469 36.67° C 42% 1015.7 hPa 0 mm - 675 W/m² -
1788368168 36.67° C 44% 1015.6 hPa 0 mm - 669 W/m² -
1788367863 35.56° C 44% 1015.8 hPa 0 mm - 660 W/m² -
1788367558 35.56° C 45% 1015.8 hPa 0 mm - 652 W/m² -
1788367257 35.56° C 47% 1015.8 hPa 0 mm - 647 W/m² -
1788366953 35° C 45% 1015.7 hPa 0 mm - 637 W/m² -
1788366651 35.56° C 45% 1015.9 hPa 0 mm - 630 W/m² -
1788366345 35.56° C 44% 1015.9 hPa 0 mm - 621 W/m² -
1788366040 36.11° C 43% 1016 hPa 0 mm - 614 W/m² -
1788365740 35.56° C 45% 1016 hPa 0 mm - 601 W/m² -
1788365436 35° C 46% 1016 hPa 0 mm - 590 W/m² -
1788365132 35° C 45% 1016 hPa 0 mm - 579 W/m² -
1788364828 34.44° C 47% 1015.8 hPa 0 mm - 565 W/m² -
1788364520 34.44° C 47% 1015.9 hPa 0 mm - 559 W/m² -

* Rain latest hour (hover to see other rain measurements)
** Current wind speed in m/s (hover to see current wind gust speed)